Back to catalog

STARLINK-5867

AliveCommunicationsVLEO
NORAD 55918·PAYLOAD·🇺🇸 United States

Launched Mar 17, 2023 from Vandenberg Space Force Base

Loading…

Next Passes (next 24 hours)

TLE

FreshSource: CelesTrak SupGP

Epoch: Sep 14, 2026, 13:49 UTC

1 55918C 23037E   26257.57618056  .00018779  00000+0  15742-2 0  2572
2 55918  70.0018 188.3062 0002711 268.8761 249.9468 14.98311550    13

Track STARLINK-5867 in real time with AllMySat

Download on the App Store